Beatrice, NE

11:20 PM CST on December 12, 2019 (GMT -0600)
Beatrice Municipal

Weather History for KBIE - October, 2019

Change the Weather History Date:

Thursday, October 10, 2019

  Actual Average Record
Temperature  
Mean Temperature 50 °F -  
Max Temperature 62 °F 72 °F 94 °F (1963)
Min Temperature 37 °F 43 °F 28 °F (2000)
Degree Days  
Heating Degree Days 16    
Moisture  
Dew Point 48 °F    
Average Humidity 94    
Maximum Humidity 100    
Minimum Humidity 78    
Precipitation  
Precipitation 0.04 in - - ()
Sea Level Pressure  
Sea Level Pressure 29.84 in    
Wind  
Wind Speed 11 mph (North)    
Max Wind Speed 24 mph    
Max Gust Speed 33 mph    
Visibility 8 miles    
Events Rain , Thunderstorm    
Averages and records for this station are not official NWS values.
T = Trace of Precipitation, MM = Missing Value Source: NWS Daily Summary

Daily Weather History Graph

Daily Weather History Graph

Search for Another Location

Airport or City:

Astronomy

Oct. 10, 2019 Rise Set
Actual Time 7:32 AM CDT 6:55 PM CDT
Civil Twilight 7:05 AM CDT 7:22 PM CDT
Nautical Twilight 6:33 AM CDT 7:53 PM CDT
Astronomical Twilight 6:01 AM CDT 8:25 PM CDT
Moon 5:57 PM CDT (10/10) 4:16 AM CDT (10/10)
Length of Visible Light 12h 17m
Length of Day
11h 22m
Waxing Gibbous, 91% of the Moon is Illuminated
Oct 10
Waxing Gibbous
Oct 13
Full
Oct 21
Last Quarter
Oct 27
New
Nov 4
First Quarter

Hourly Weather History & Observations

Time (CDT) Temp. Windchill Dew Point Humidity Pressure Visibility Wind Dir Wind Speed Gust Speed Precip Events Conditions
12:15 AM 62.6 °F - 55.8 °F 78% 29.78 in 10.0 mi ESE 6.9 mph - N/A   Overcast
12:35 AM 62.6 °F - 55.8 °F 78% 29.78 in 10.0 mi ESE 6.9 mph - N/A Thunderstorm Thunderstorm
12:55 AM 62.2 °F - 56.1 °F 80% 29.76 in 10.0 mi ESE 6.9 mph - N/A Thunderstorm Overcast
1:15 AM 61.9 °F - 56.3 °F 82% 29.74 in 10.0 mi ESE 6.9 mph - N/A Thunderstorm Overcast
1:35 AM 61.3 °F - 56.7 °F 85% 29.72 in 10.0 mi East 8.1 mph - N/A Thunderstorm Overcast
1:55 AM 60.8 °F - 56.7 °F 86% 29.70 in 10.0 mi ESE 9.2 mph - N/A Rain , Thunderstorm Light Thunderstorms and Rain
2:15 AM 60.1 °F - 57.2 °F 90% 29.68 in 10.0 mi SE 6.9 mph - N/A Thunderstorm Mostly Cloudy
2:35 AM 60.3 °F - 57.2 °F 90% 29.69 in 10.0 mi East 5.8 mph - N/A   Mostly Cloudy
2:55 AM 60.3 °F - 57.4 °F 90% 29.70 in 10.0 mi ENE 5.8 mph - N/A   Overcast
3:15 AM 60.3 °F - 57.6 °F 91% 29.71 in 10.0 mi ENE 5.8 mph - N/A   Overcast
3:35 AM 60.8 °F - 57.9 °F 90% 29.71 in 10.0 mi North 6.9 mph - N/A Thunderstorm Thunderstorm
3:55 AM 60.1 °F - 58.5 °F 94% 29.70 in 10.0 mi NNE 6.9 mph - 0.01 in Rain Light Rain
4:15 AM 59.5 °F - 58.3 °F 96% 29.71 in 10.0 mi NE 10.4 mph - N/A Thunderstorm Thunderstorm
4:35 AM 59.4 °F - 58.3 °F 96% 29.72 in 10.0 mi ENE 9.2 mph - N/A Thunderstorm Overcast
4:55 AM 59.9 °F - 58.3 °F 94% 29.72 in 10.0 mi ENE 8.1 mph - N/A   Overcast
5:15 AM 59.7 °F - 58.1 °F 94% 29.72 in 10.0 mi ENE 8.1 mph - N/A   Overcast
5:35 AM 59.5 °F - 58.3 °F 96% 29.71 in 10.0 mi ENE 5.8 mph - N/A   Overcast
6:15 AM 59.0 °F - 58.1 °F 97% 29.71 in 10.0 mi East 8.1 mph - N/A   Mostly Cloudy
6:35 AM 59.4 °F - 58.5 °F 97% 29.72 in 10.0 mi East 5.8 mph - N/A Rain , Thunderstorm Light Thunderstorms and Rain
6:55 AM 59.5 °F - 59.0 °F 98% 29.71 in 10.0 mi East 6.9 mph - 0.02 in Rain Light Rain
7:15 AM 59.9 °F - 59.0 °F 97% 29.71 in 10.0 mi East 5.8 mph - N/A Rain Light Rain
7:35 AM 60.1 °F - 59.0 °F 96% 29.71 in 10.0 mi ESE 4.6 mph - N/A   Overcast
7:55 AM 60.1 °F - 59.0 °F 96% 29.71 in 10.0 mi ESE 9.2 mph - 0.01 in   Overcast
8:15 AM 60.4 °F - 59.2 °F 96% 29.72 in 10.0 mi ESE 9.2 mph - N/A   Overcast
8:35 AM 60.8 °F - 59.2 °F 94% 29.71 in 10.0 mi ESE 10.4 mph - N/A   Overcast
8:55 AM 61.0 °F - 59.5 °F 95% 29.72 in 10.0 mi ESE 10.4 mph - N/A   Overcast
9:10 AM 61.2 °F - 59.7 °F 95% 29.72 in 10.0 mi ESE 9.2 mph - N/A   Overcast
9:35 AM 61.7 °F - 59.9 °F 94% 29.72 in 10.0 mi ESE 4.6 mph - N/A   Overcast
9:55 AM 61.3 °F - 59.9 °F 95% 29.74 in 10.0 mi East 3.5 mph - N/A   Overcast
10:15 AM 61.2 °F - 59.9 °F 96% 29.75 in 10.0 mi WNW 15.0 mph 18.4 mph N/A   Overcast
10:35 AM 54.1 °F - 53.2 °F 97% 29.76 in 10.0 mi NW 18.4 mph 24.2 mph N/A   Overcast
10:55 AM 51.1 °F - 50.2 °F 97% 29.77 in 7.0 mi NNW 20.7 mph 27.6 mph N/A   Overcast
11:15 AM 49.3 °F - 48.0 °F 95% 29.78 in 7.0 mi NNW 19.6 mph 25.3 mph N/A   Overcast
11:35 AM 47.3 °F - 45.9 °F 95% 29.81 in 7.0 mi NW 16.1 mph 29.9 mph N/A   Overcast
12:15 PM 45.1 °F 39.5 °F 44.8 °F 99% 29.82 in 5.0 mi NNW 11.5 mph - N/A   Overcast
12:35 PM 44.6 °F 36.4 °F 44.2 °F 99% 29.81 in 4.0 mi NNW 20.7 mph 28.8 mph N/A   Light Drizzle
12:55 PM 44.1 °F 35.7 °F 43.9 °F 99% 29.82 in 5.0 mi NNW 20.7 mph 27.6 mph N/A   Overcast
1:15 PM 43.9 °F 35.9 °F 43.7 °F 99% 29.82 in 3.0 mi NNW 18.4 mph - N/A   Overcast
1:35 PM 42.8 °F 33.3 °F 42.6 °F 99% 29.83 in 2.0 mi NNW 24.2 mph 32.2 mph N/A   Overcast
1:55 PM 42.6 °F 33.8 °F 42.4 °F 99% 29.83 in 1.8 mi NNW 20.7 mph 27.6 mph N/A   Overcast
2:15 PM 42.4 °F 35.0 °F 42.4 °F 100% 29.83 in 2.0 mi NW 15.0 mph 25.3 mph N/A   Overcast
2:35 PM 42.1 °F 33.3 °F 42.1 °F 100% 29.84 in 1.8 mi NW 19.6 mph 26.5 mph N/A   Overcast
2:55 PM 41.4 °F 31.9 °F 41.2 °F 99% 29.84 in 1.8 mi NW 21.9 mph 33.4 mph N/A   Overcast
3:15 PM 41.4 °F 31.9 °F 41.2 °F 99% 29.85 in 5.0 mi NNW 21.9 mph 29.9 mph N/A   Overcast
3:35 PM 41.0 °F 31.6 °F 40.6 °F 99% 29.86 in 4.0 mi NNW 20.7 mph 31.1 mph N/A   Overcast
3:55 PM 40.6 °F 30.4 °F 40.5 °F 99% 29.87 in 4.0 mi NNW 24.2 mph 31.1 mph N/A   Overcast
4:15 PM 40.5 °F 30.9 °F 40.3 °F 99% 29.88 in 1.5 mi NNW 20.7 mph 29.9 mph N/A   Overcast
4:35 PM 40.8 °F 32.0 °F 40.6 °F 99% 29.89 in 3.0 mi NNW 18.4 mph 26.5 mph N/A   Overcast
4:55 PM 40.5 °F 30.9 °F 40.3 °F 99% 29.91 in 4.0 mi NW 20.7 mph 29.9 mph N/A   Overcast
5:15 PM 40.1 °F 31.0 °F 40.1 °F 100% 29.92 in 1.8 mi NW 18.4 mph 27.6 mph N/A   Overcast
5:35 PM 39.4 °F 29.2 °F 39.4 °F 100% 29.93 in 4.0 mi NNW 21.9 mph 32.2 mph N/A   Overcast
5:55 PM 39.2 °F 29.0 °F 39.2 °F 100% 29.94 in 3.0 mi NW 21.9 mph 27.6 mph N/A   Overcast
6:15 PM 39.2 °F 30.5 °F 39.2 °F 100% 29.95 in 10.0 mi NW 16.1 mph 27.6 mph N/A   Overcast
6:35 PM 38.7 °F 28.6 °F 38.5 °F 99% 29.96 in 10.0 mi NNW 20.7 mph 31.1 mph N/A   Overcast
6:55 PM 38.8 °F 29.7 °F 38.7 °F 99% 29.97 in 7.0 mi NW 17.3 mph 24.2 mph N/A   Overcast
7:15 PM 38.5 °F 28.9 °F 38.3 °F 99% 29.98 in 10.0 mi NW 18.4 mph 24.2 mph N/A   Overcast
7:35 PM 38.7 °F 29.1 °F 38.1 °F 98% 30.00 in 10.0 mi NW 18.4 mph 29.9 mph N/A   Overcast
7:55 PM 38.3 °F 28.7 °F 37.8 °F 98% 30.01 in 10.0 mi NW 18.4 mph 27.6 mph N/A   Overcast
8:15 PM 38.3 °F 28.1 °F 37.4 °F 97% 30.01 in 10.0 mi NW 20.7 mph 28.8 mph N/A   Overcast
8:35 PM 38.1 °F 27.9 °F 37.2 °F 97% 30.02 in 10.0 mi NW 20.7 mph 27.6 mph N/A   Overcast
8:55 PM 37.8 °F 28.6 °F 37.0 °F 97% 30.03 in 10.0 mi NW 16.1 mph 24.2 mph N/A   Overcast
9:15 PM 37.6 °F 27.7 °F 36.7 °F 97% 30.04 in 10.0 mi NW 18.4 mph 26.5 mph N/A   Overcast
9:35 PM 37.8 °F 28.6 °F 36.7 °F 96% 30.05 in 10.0 mi NW 16.1 mph 23.0 mph N/A   Overcast
9:55 PM 38.5 °F 28.9 °F 33.1 °F 81% 30.06 in 10.0 mi NW 18.4 mph 25.3 mph N/A   Overcast
10:15 PM 38.5 °F 28.1 °F 32.0 °F 78% 30.06 in 10.0 mi NW 21.9 mph 27.6 mph N/A   Overcast
10:35 PM 38.3 °F 29.3 °F 32.0 °F 78% 30.07 in 10.0 mi NW 16.1 mph 25.3 mph N/A   Overcast
10:55 PM 37.8 °F 29.4 °F 32.0 °F 80% 30.08 in 10.0 mi NW 13.8 mph 23.0 mph N/A   Overcast
11:15 PM 38.3 °F 28.7 °F 32.0 °F 78% 30.10 in 10.0 mi NW 18.4 mph 26.5 mph N/A   Overcast
11:35 PM 37.8 °F 29.0 °F 31.8 °F 79% 30.10 in 10.0 mi NW 15.0 mph 26.5 mph N/A   Overcast
11:55 PM 37.8 °F 29.8 °F 32.0 °F 80% 30.10 in 10.0 mi NW 12.7 mph 20.7 mph N/A   Overcast